Snowfall_Accumulation
nan nan nan nan nan nan nan 0.0 1.4 0.0 0.0 1.9 0.6 0.5 0.0 nan 0.0 0.0 0.0 0.0 0.0 0.1 0.2 0.1 0.9 0.1 0.0 0.0 0.0 0.0 0.0 0.1 0.1 0.0 0.0 0.0 0.0 0.0 0.0 2.1 0.4 1.7 4.1 6.6
nan nan nan nan nan nan 0.0 0.2 0.6 0.0 0.0 5.4 0.8 0.1 0.0 0.0 0.0 0.0 0.0 0.0 0.0 0.0 0.5 1.4 0.1 0.1 0.0 0.0 0.0 0.0 0.0 0.0 0.3 0.1 0.1 0.0 0.0 0.0 0.0 0.1 0.4 1.0 8.1 7.5
nan nan nan nan nan nan 0.0 0.1 3.7 1.3 0.4 0.1 0.0 0.0 0.0 0.0 0.0 0.0 0.0 0.0 0.0 0.1 0.1 0.0 0.3 0.1 0.0 0.0 0.0 nan nan 0.0 0.1 1.2 0.7 0.1 0.2 0.0 0.0 0.1 6.0 1.9 1.3 1.5
nan nan nan nan nan nan 0.0 0.0 2.0 0.1 4.1 1.1 0.0 0.0 0.0 0.0 0.1 0.0 0.0 0.0 0.0 0.1 0.6 0.1 0.1 0.0 0.0 0.0 nan 0.0 0.0 0.7 0.1 0.1 0.1 0.0 0.0 0.3 0.0 0.1 0.1 1.0 2.1 0.3
nan nan nan nan nan nan 0.0 1.3 0.1 0.0 0.0 0.0 0.0 0.0 0.0 0.0 0.0 0.0 0.0 0.0 0.0 0.0 0.1 0.0 0.1 0.0 0.0 0.0 0.0 0.0 0.0 1.5 0.8 1.3 0.1 0.0 0.7 1.2 0.1 0.0 0.1 0.3 0.1 0.1
nan nan nan nan nan nan 0.0 0.0 0.0 0.0 nan 0.0 0.2 0.2 0.0 0.0 0.0 0.0 0.0 0.0 0.0 0.0 0.0 0.0 0.0 0.0 0.0 0.0 0.0 0.0 0.0 0.3 0.5 0.2 0.0 0.0 1.4 4.6 1.9 0.1 0.0 0.0 0.1 0.1
nan nan nan nan nan nan 0.0 0.0 0.0 0.1 0.8 0.1 0.0 0.0 0.0 0.0 0.0 0.0 0.0 0.0 0.0 0.0 0.0 0.0 0.0 0.0 0.0 0.0 0.0 0.0 0.0 0.1 0.2 0.7 0.3 3.4 1.3 0.0 0.0 0.0 0.0 0.0 0.0 0.0
nan nan nan nan nan nan 0.0 0.0 0.0 0.0 0.8 0.0 0.0 0.0 0.0 0.0 0.0 0.0 0.0 0.0 0.0 0.0 0.0 0.0 0.1 0.1 0.0 0.0 0.0 0.0 0.0 0.1 2.1 3.3 0.8 0.5 0.1 0.0 0.1 0.0 0.1 0.0 0.0 0.0
nan nan nan nan nan nan 0.0 0.0 0.0 0.0 0.3 0.0 0.0 0.0 0.0 0.0 0.0 0.0 0.0 0.0 0.0 0.0 0.0 0.4 0.5 0.5 0.0 0.1 0.0 0.0 0.0 0.0 0.5 1.6 1.8 2.9 0.2 0.0 0.0 0.0 0.7 0.0 0.0 0.0
nan nan nan nan nan nan 0.0 0.0 0.0 0.0 1.6 0.0 0.0 0.0 0.0 0.0 0.0 0.0 0.0 0.0 0.0 0.0 0.4 1.4 0.6 0.5 0.0 0.4 0.0 0.1 0.1 0.3 2.2 1.7 1.8 0.3 0.0 0.0 0.0 0.8 0.7 0.0 0.0 0.0
nan nan nan nan nan nan 0.0 0.0 0.0 0.0 1.1 0.0 0.0 0.0 0.0 0.0 0.0 0.3 0.0 0.9 0.3 0.2 0.6 0.6 0.3 0.3 0.0 0.4 0.0 0.0 0.0 0.6 1.1 0.8 1.4 1.9 0.0 0.1 0.4 0.5 0.0 0.0 0.0 0.0
nan nan nan nan nan nan nan 0.0 0.0 0.0 0.0 0.2 0.0 0.0 0.0 0.0 0.0 0.0 0.0 0.1 0.0 0.0 0.1 0.1 0.1 0.4 0.4 0.0 3.7 0.0 1.8 0.1 0.5 0.2 1.0 0.1 0.1 0.1 0.0 0.0 0.0 0.1 0.0 0.0
nan nan nan nan nan nan nan 0.0 0.0 0.0 0.2 0.0 0.0 0.0 0.0 0.0 0.0 0.0 0.2 0.0 0.0 0.0 0.0 2.1 1.2 0.5 0.1 0.6 0.5 0.3 0.0 0.0 1.0 0.4 0.2 0.1 0.1 0.1 0.0 0.0 0.1 0.0 0.0 0.1
nan nan nan nan nan nan nan 0.0 0.0 0.0 0.0 2.1 0.3 0.0 0.0 0.0 0.0 0.0 0.0 0.0 0.0 0.0 0.0 0.2 0.7 0.6 0.0 0.4 0.2 0.1 0.2 0.0 0.2 0.6 0.2 0.1 0.1 0.1 0.1 0.1 0.0 0.0 0.0 0.0
nan nan nan nan nan nan nan 0.0 0.0 0.0 0.1 1.2 0.2 0.0 0.0 0.0 0.0 0.0 0.0 0.0 0.0 0.0 0.1 0.8 0.7 0.0 0.2 0.0 0.1 0.4 0.0 0.1 1.6 2.0 0.1 0.1 0.2 0.1 0.1 0.1 0.1 0.0 0.1 0.1
nan nan nan nan nan nan 0.0 3.8 0.0 0.0 0.0 1.3 2.4 0.0 0.0 0.0 0.0 0.0 0.0 0.0 0.0 0.0 0.1 0.3 0.1 0.0 0.0 1.6 0.9 0.0 0.0 0.0 0.0 0.5 0.0 0.2 0.4 0.1 0.1 0.1 0.1 0.0 0.0 0.0
nan nan nan nan nan 0.0 0.5 0.8 0.0 nan 0.0 1.2 1.8 0.7 0.0 0.0 0.0 0.0 0.0 0.0 0.0 0.0 0.0 0.4 0.0 0.0 0.0 1.1 0.6 0.0 0.0 0.0 0.0 0.0 0.0 0.1 0.1 0.2 0.0 0.0 0.0 0.0 0.0 0.0
nan nan nan nan nan nan 0.3 0.0 nan nan 0.0 0.0 3.4 2.0 0.1 0.0 0.1 0.6 0.0 0.0 0.0 0.0 0.0 0.3 0.1 0.0 0.2 2.1 0.0 0.0 0.0 0.0 0.0 0.0 0.0 0.0 0.0 0.0 0.0 0.0 0.0 0.0 0.0 0.0
nan nan nan 0.0 0.0 1.1 0.2 nan nan 0.0 0.1 1.3 1.9 1.7 4.5 0.0 0.0 0.1 0.0 0.0 2.2 0.0 0.7 0.2 0.0 0.7 2.3 0.5 0.0 0.0 0.0 0.0 0.0 0.0 0.0 0.0 0.0 0.0 0.0 0.0 0.0 0.0 0.0 0.0
nan 0.0 0.6 9.3 0.8 nan nan 0.6 4.0 2.7 0.1 0.0 0.4 0.1 1.4 0.1 0.2 0.6 0.3 0.2 0.9 1.9 0.8 0.0 1.3 0.9 0.0 0.0 0.0 0.0 0.0 0.0 0.0 0.0 0.0 0.0 0.0 0.0 0.0 0.0 0.0 0.1 0.1 0.8
0.3 7.2 2.1 0.0 nan 0.1 1.8 8.8 7.3 3.4 3.3 0.2 0.1 0.0 0.1 0.0 1.2 0.9 0.2 2.1 1.1 1.8 0.7 0.9 1.6 1.1 0.4 0.0 0.0 0.0 0.0 0.0 0.0 0.0 0.0 0.0 0.0 0.0 0.0 0.0 0.0 0.1 0.1 0.9
0.3 0.0 0.0 0.0 0.5 4.1 2.8 5.0 1.9 1.8 0.5 0.7 0.3 0.2 0.0 0.2 0.0 1.3 1.6 1.3 1.6 1.5 0.4 3.8 2.6 1.3 0.0 0.0 0.0 0.0 0.0 0.0 0.0 0.0 0.0 0.0 0.0 0.0 0.0 0.1 0.2 0.3 0.8 4.6
0.0 0.3 1.3 1.0 4.9 34.1 4.2 5.1 2.1 7.5 0.8 0.9 0.5 2.9 0.2 0.2 0.4 1.8 2.0 4.8 5.9 0.6 5.9 2.0 1.7 0.2 0.0 0.0 0.0 0.0 0.0 0.0 0.0 0.0 0.0 0.0 0.1 0.1 0.1 2.0 3.2 4.3 4.8 6.6
1.8 4.3 37.3 6.0 4.8 1.5 2.1 1.1 1.1 1.0 0.7 0.5 0.3 0.6 0.5 0.8 2.2 4.4 4.9 2.1 0.8 5.0 3.7 1.9 1.2 0.3 0.3 0.1 0.1 0.1 1.4 2.1 1.8 1.9 2.7 4.0 4.2 6.2 5.6 6.9 8.1 6.2 5.2 8.2
2.5 2.1 25.1 5.4 1.7 1.5 1.7 1.1 0.9 0.6 0.4 0.4 0.6 0.6 0.3 1.7 4.1 1.7 0.8 3.5 4.1 2.0 3.0 2.5 2.1 0.5 0.4 0.8 0.5 1.1 2.4 4.4 3.7 3.3 4.0 6.4 6.1 4.3 5.4 6.2 5.5 3.6 6.6 7.1
0.8 0.7 3.7 1.8 4.6 10.4 7.0 4.1 3.3 0.4 0.5 0.4 0.3 0.8 2.2 2.9 2.6 1.1 2.6 0.6 2.3 3.8 3.0 2.8 2.2 1.6 2.5 2.7 2.7 3.5 3.7 3.5 3.9 3.7 3.5 4.0 5.0 4.6 4.6 3.6 3.9 7.9 6.7 10.2
0.4 9.9 3.8 5.0 3.7 7.5 5.5 2.3 1.1 0.4 0.7 4.1 0.6 1.9 0.9 0.5 1.9 0.7 1.4 6.8 4.7 3.9 3.6 3.1 1.2 2.2 2.8 3.8 4.2 6.3 4.2 3.2 3.3 3.3 2.7 3.0 3.1 2.5 1.2 1.8 2.6 1.0 0.9 7.2
Water_Equivalent
nan nan nan nan nan nan nan 0.00 0.45 0.00 0.00 0.58 0.18 0.12 0.00 nan 0.00 0.00 0.00 0.00 0.00 0.02 0.04 0.02 0.23 0.02 0.00 0.00 0.00 0.00 0.00 0.02 0.02 0.00 0.00 0.00 0.00 0.00 0.00 0.39 0.07 0.32 0.94 1.17
nan nan nan nan nan nan 0.00 0.09 0.25 0.00 0.00 1.00 0.20 0.01 0.00 0.00 0.00 0.00 0.00 0.00 0.00 0.01 0.13 0.30 0.04 0.02 0.00 0.00 0.00 0.00 0.00 0.00 0.05 0.02 0.01 0.00 0.00 0.00 0.00 0.02 0.07 0.18 1.36 1.37
nan nan nan nan nan nan 0.00 0.04 0.89 0.43 0.14 0.03 0.00 0.01 0.01 0.00 0.00 0.00 0.00 0.00 0.00 0.01 0.03 0.00 0.08 0.03 0.00 0.00 0.00 nan nan 0.00 0.02 0.22 0.12 0.03 0.03 0.00 0.00 0.02 1.13 0.36 0.25 0.31
nan nan nan nan nan nan 0.00 0.01 0.55 0.03 0.82 0.30 0.01 0.01 0.00 0.01 0.01 0.00 0.00 0.00 0.00 0.01 0.13 0.02 0.02 0.00 0.00 0.00 nan 0.00 0.00 0.17 0.02 0.02 0.01 0.00 0.01 0.08 0.01 0.02 0.02 0.19 0.43 0.06
nan nan nan nan nan nan 0.00 0.51 0.02 0.00 0.00 0.00 0.00 0.00 0.00 0.00 0.00 0.00 0.00 0.00 0.00 0.00 0.02 0.00 0.02 0.00 0.00 0.00 0.00 0.00 0.00 0.33 0.21 0.30 0.02 0.01 0.15 0.26 0.02 0.01 0.02 0.06 0.02 0.03
nan nan nan nan nan nan 0.00 0.00 0.00 0.00 nan 0.00 0.06 0.04 0.00 0.00 0.00 0.00 0.00 0.00 0.00 0.00 0.00 0.00 0.00 0.00 0.00 0.00 0.00 0.00 0.00 0.07 0.12 0.05 0.00 0.00 0.23 0.82 0.34 0.03 0.00 0.01 0.03 0.02
nan nan nan nan nan nan 0.00 0.00 0.00 0.03 0.18 0.02 0.00 0.00 0.00 0.00 0.00 0.00 0.00 0.00 0.00 0.00 0.00 0.00 0.00 0.00 0.00 0.00 0.00 0.00 0.01 0.02 0.04 0.16 0.06 0.47 0.24 0.00 0.00 0.00 0.00 0.00 0.00 0.01
nan nan nan nan nan nan 0.00 0.00 0.00 0.00 0.26 0.00 0.00 0.00 0.00 0.00 0.00 0.00 0.00 0.00 0.00 0.00 0.00 0.00 0.01 0.02 0.00 0.00 0.00 0.00 0.00 0.02 0.40 0.56 0.15 0.08 0.02 0.01 0.01 0.01 0.02 0.00 0.01 0.01
nan nan nan nan nan nan 0.00 0.00 0.00 0.00 0.09 0.01 0.00 0.00 0.00 0.01 0.00 0.00 0.00 0.00 0.00 0.00 0.00 0.09 0.06 0.12 0.00 0.02 0.00 0.00 0.00 0.00 0.12 0.30 0.22 0.44 0.03 0.01 0.00 0.00 0.12 0.00 0.00 0.00
nan nan nan nan nan nan 0.00 0.00 0.00 0.00 0.38 0.00 0.00 0.00 0.00 0.00 0.00 0.00 0.00 0.00 0.00 0.00 0.11 0.31 0.13 0.12 0.00 0.08 0.00 0.02 0.06 0.08 0.39 0.32 0.27 0.06 0.00 0.01 0.00 0.13 0.12 0.00 0.00 0.00
nan nan nan nan nan nan 0.00 0.00 0.00 0.00 0.24 0.00 0.00 0.00 0.00 0.00 0.00 0.07 0.00 0.21 0.11 0.08 0.13 0.12 0.06 0.11 0.01 0.08 0.00 0.00 0.01 0.13 0.30 0.17 0.24 0.30 0.00 0.02 0.06 0.08 0.01 0.00 0.00 0.00
nan nan nan nan nan nan nan 0.00 0.00 0.00 0.00 0.03 0.00 0.00 0.00 0.00 0.00 0.00 0.00 0.03 0.00 0.00 0.03 0.03 0.03 0.13 0.17 0.01 0.70 0.00 0.38 0.02 0.11 0.04 0.19 0.02 0.02 0.03 0.01 0.00 0.00 0.02 0.00 0.00
nan nan nan nan nan nan nan 0.00 0.00 0.00 0.07 0.01 0.00 0.00 0.00 0.00 0.00 0.00 0.06 0.00 0.00 0.01 0.00 0.41 0.24 0.08 0.02 0.17 0.11 0.07 0.01 0.00 0.30 0.09 0.04 0.02 0.02 0.02 0.01 0.00 0.02 0.01 0.00 0.02
nan nan nan nan nan nan nan 0.00 0.00 0.00 0.00 0.54 0.07 0.00 0.00 0.00 0.00 0.00 0.00 0.00 0.00 0.00 0.00 0.05 0.18 0.18 0.00 0.11 0.06 0.03 0.06 0.01 0.04 0.14 0.04 0.02 0.02 0.03 0.02 0.02 0.00 0.00 0.00 0.00
nan nan nan nan nan nan nan 0.00 0.00 0.00 0.03 0.26 0.05 0.00 0.00 0.00 0.00 0.00 0.00 0.00 0.00 0.00 0.02 0.24 0.16 0.00 0.05 0.00 0.04 0.09 0.00 0.02 0.42 0.44 0.05 0.03 0.04 0.03 0.02 0.03 0.03 0.01 0.01 0.02
nan nan nan nan nan nan 0.00 1.16 0.00 0.00 0.00 0.27 0.43 0.00 0.00 0.00 0.00 0.00 0.00 0.00 0.00 0.00 0.02 0.09 0.02 0.00 0.01 0.40 0.22 0.01 0.01 0.00 0.00 0.13 0.01 0.05 0.11 0.03 0.02 0.03 0.01 0.00 0.00 0.00
nan nan nan nan nan 0.00 0.15 0.16 0.00 nan 0.00 0.28 0.33 0.16 0.00 0.00 0.00 0.00 0.00 0.00 0.00 0.00 0.00 0.08 0.00 0.00 0.00 0.30 0.17 0.00 0.00 0.00 0.00 0.00 0.00 0.03 0.01 0.04 0.00 0.00 0.00 0.00 0.00 0.00
nan nan nan nan nan nan 0.10 0.00 nan nan 0.00 0.01 0.68 0.42 0.04 0.00 0.02 0.14 0.00 0.00 0.00 0.00 0.00 0.06 0.02 0.00 0.07 0.46 0.00 0.00 0.00 0.00 0.00 0.00 0.00 0.00 0.00 0.00 0.00 0.00 0.00 0.00 0.00 0.00
nan nan nan 0.00 0.00 0.23 0.05 nan nan 0.00 0.04 0.28 0.57 0.37 1.15 0.00 0.01 0.03 0.02 0.00 0.47 0.00 0.19 0.05 0.00 0.18 0.54 0.13 0.00 0.00 0.00 0.00 0.00 0.00 0.00 0.00 0.00 0.00 0.00 0.00 0.00 0.00 0.00 0.00
nan 0.00 0.12 2.34 0.15 nan nan 0.14 0.97 0.67 0.03 0.00 0.15 0.03 0.35 0.02 0.09 0.16 0.11 0.08 0.24 0.41 0.22 0.01 0.31 0.22 0.00 0.00 0.00 0.00 0.00 0.00 0.00 0.00 0.00 0.00 0.00 0.00 0.00 0.01 0.01 0.01 0.03 0.13
0.07 1.66 0.54 0.00 nan 0.01 0.35 1.89 1.70 0.75 0.59 0.06 0.04 0.01 0.04 0.00 0.34 0.26 0.08 0.54 0.29 0.48 0.20 0.28 0.43 0.29 0.10 0.00 0.00 0.00 0.00 0.00 0.00 0.00 0.00 0.00 0.00 0.00 0.01 0.01 0.01 0.01 0.02 0.13
0.07 0.00 0.00 0.00 0.17 0.93 0.43 1.20 0.50 0.33 0.10 0.15 0.12 0.06 0.00 0.08 0.00 0.33 0.38 0.34 0.41 0.34 0.12 1.06 0.64 0.26 0.00 0.00 0.00 0.00 0.00 0.00 0.00 0.00 0.00 0.00 0.00 0.00 0.01 0.01 0.04 0.06 0.12 0.71
0.00 0.08 0.33 0.25 1.27 5.04 1.07 1.17 0.60 2.07 0.31 0.38 0.18 1.16 0.08 0.07 0.17 0.57 0.46 1.36 1.50 0.18 1.67 0.47 0.37 0.05 0.00 0.00 0.00 0.00 0.00 0.00 0.00 0.00 0.00 0.00 0.01 0.01 0.03 0.27 0.43 0.61 0.59 0.79
0.48 1.02 5.62 1.69 1.53 0.47 0.56 0.31 0.39 0.38 0.26 0.22 0.12 0.25 0.19 0.30 0.74 1.41 1.57 0.65 0.24 1.37 0.85 0.44 0.27 0.07 0.07 0.02 0.02 0.02 0.27 0.43 0.35 0.37 0.47 0.61 0.63 0.87 0.83 1.06 1.23 0.88 0.62 0.95
0.60 0.47 3.02 1.37 0.52 0.50 0.61 0.42 0.37 0.24 0.14 0.17 0.24 0.20 0.09 0.58 1.33 0.54 0.26 1.02 1.14 0.54 0.68 0.55 0.46 0.10 0.09 0.16 0.11 0.19 0.38 0.69 0.56 0.50 0.56 0.91 0.82 0.56 0.65 0.77 0.67 0.43 0.89 0.91
0.20 0.16 0.94 0.55 1.34 2.93 2.69 1.57 1.30 0.17 0.20 0.15 0.13 0.21 0.65 0.84 0.77 0.30 0.72 0.17 0.50 0.83 0.60 0.56 0.44 0.29 0.41 0.45 0.45 0.57 0.59 0.54 0.53 0.48 0.45 0.50 0.63 0.58 0.50 0.40 0.45 1.14 1.01 1.51
0.09 2.41 1.07 1.36 1.13 2.14 1.83 0.88 0.38 0.16 0.27 1.54 0.22 0.55 0.24 0.15 0.52 0.16 0.30 1.49 0.94 0.74 0.62 0.57 0.23 0.37 0.45 0.58 0.61 0.89 0.54 0.41 0.41 0.39 0.32 0.34 0.35 0.29 0.14 0.20 0.31 0.13 0.13 1.12
SL_Ratio
nan nan nan nan nan nan nan 0.0 3.1 nan nan 3.3 3.2 3.7 nan nan nan nan nan nan nan 3.7 4.0 4.0 3.9 3.8 3.3 nan nan nan nan 3.6 5.0 nan nan nan nan nan nan 5.3 5.9 5.3 4.3 5.6
nan nan nan nan nan nan nan 2.5 2.5 2.5 nan 5.4 4.0 4.4 nan nan nan nan nan nan nan 3.0 4.0 4.5 3.8 3.7 nan nan nan nan nan 4.4 5.2 4.5 4.9 2.5 nan nan nan 4.9 5.5 5.4 6.0 5.4
nan nan nan nan nan nan nan 2.5 4.1 3.0 2.7 2.5 4.2 4.6 5.6 nan nan nan nan nan 3.3 3.6 3.9 0.0 4.4 4.0 nan nan nan nan nan 5.0 4.7 5.5 5.8 3.7 4.7 4.0 nan 4.1 5.3 5.3 5.1 4.9
nan nan nan nan nan nan nan 2.4 3.6 3.3 5.0 3.8 3.2 4.4 nan 4.1 4.1 0.0 nan nan 2.5 3.7 4.5 4.0 4.1 3.3 nan nan nan nan nan 4.4 3.8 3.9 3.8 3.3 3.5 4.1 3.4 3.7 3.8 5.3 5.0 4.7
nan nan nan nan nan nan nan 2.6 3.6 nan nan nan nan nan 4.4 0.0 nan nan nan nan nan nan 4.2 3.6 4.4 nan nan 3.3 nan nan nan 4.6 3.7 4.5 3.8 3.8 4.9 4.8 3.9 3.5 3.6 4.5 4.7 4.8
nan nan nan nan nan nan nan nan nan nan nan nan 4.0 3.8 nan nan nan nan nan nan nan nan nan nan nan nan nan nan nan nan 4.0 4.0 4.4 5.3 4.2 4.0 6.3 5.6 5.5 4.4 5.0 3.6 4.8 4.6
nan nan nan nan nan nan nan nan nan 3.5 4.2 3.3 nan nan nan nan nan nan nan nan nan nan nan nan nan nan nan nan nan nan 4.2 4.3 3.8 4.6 4.8 7.2 5.4 0.0 5.0 5.0 nan 3.3 nan 4.4
nan nan nan nan nan nan nan nan nan 3.0 3.2 nan nan nan nan nan nan nan nan nan nan nan nan 3.8 5.6 2.7 nan nan nan nan nan 3.9 5.3 5.8 5.2 5.5 4.5 4.4 4.4 4.1 5.3 5.0 4.2 4.3
nan nan nan nan nan nan nan nan nan nan 3.6 4.0 nan nan nan 3.5 nan 3.3 nan nan nan nan nan 4.9 7.3 4.1 nan 4.1 nan nan nan nan 3.9 5.4 8.1 6.4 5.6 4.2 nan nan 5.6 0.0 0.0 4.4
nan nan nan nan nan nan nan nan nan 3.3 4.2 nan nan nan nan nan nan 4.0 nan nan nan nan 4.0 4.4 4.4 4.4 nan 5.0 nan 5.1 2.5 3.3 5.7 5.3 6.6 4.7 3.3 3.6 nan 5.9 5.7 nan nan nan
nan nan nan nan nan nan nan nan nan 2.9 4.7 5.0 nan nan nan nan nan 3.9 nan 4.4 3.1 2.6 4.9 5.0 4.2 2.7 2.9 4.6 4.0 nan 3.3 4.1 3.6 4.6 5.9 6.3 4.0 3.8 5.7 5.5 3.8 nan nan nan
nan nan nan nan nan nan nan nan nan nan nan 4.7 nan nan nan nan nan nan nan 4.0 nan 6.7 3.8 3.0 2.6 2.7 2.5 4.4 5.2 nan 4.8 4.1 4.8 5.2 5.5 3.7 3.8 4.2 3.3 nan 3.3 3.9 5.0 nan
nan nan nan nan nan nan nan nan nan nan 2.5 4.5 3.8 nan nan nan nan nan 2.5 nan nan 2.8 nan 5.0 4.9 5.8 6.0 3.3 4.7 4.9 3.7 nan 3.3 4.6 4.1 3.9 3.8 3.7 3.9 4.0 3.6 3.8 nan 5.0
nan nan nan nan nan nan nan nan nan nan nan 3.9 4.6 nan nan nan nan nan nan nan nan nan nan 3.3 3.9 3.6 nan 3.8 3.8 3.7 3.1 4.5 5.4 4.4 4.6 3.8 3.9 3.8 3.8 4.1 4.0 nan nan 5.0
nan nan nan nan nan nan nan nan nan nan 3.6 4.6 4.7 nan nan nan nan nan nan nan nan nan 4.3 3.6 4.4 5.0 4.2 nan 3.4 4.2 2.5 3.8 3.8 4.5 3.1 4.0 4.0 3.7 3.6 4.2 4.5 4.3 4.9 5.6
nan nan nan nan nan nan nan 3.3 nan nan nan 4.7 5.5 0.0 nan nan nan nan nan nan nan nan 3.5 3.6 3.0 nan 4.6 4.0 3.9 3.1 2.5 nan 2.5 3.5 2.9 3.4 3.4 3.7 3.7 4.3 4.7 10.0 3.3 nan
nan nan nan nan nan nan 3.4 4.9 nan nan nan 4.3 5.3 4.5 nan nan nan nan nan nan nan nan 5.0 4.4 10.0 nan 0.0 3.6 3.6 3.3 nan nan nan nan 5.0 4.5 4.4 4.4 nan nan nan nan nan nan
nan nan nan nan nan nan 3.4 nan nan nan 5.7 5.6 5.0 4.6 3.5 nan 2.5 4.1 nan nan 2.0 3.1 4.0 4.0 4.3 nan 3.1 4.5 3.3 nan nan nan nan nan nan nan nan nan nan nan nan 6.3 10.0 6.7
nan nan nan nan nan 4.7 3.6 nan nan nan 3.8 4.7 3.2 4.5 3.9 nan 2.7 2.5 2.5 2.9 4.6 nan 3.7 3.9 nan 3.9 4.2 4.0 3.3 nan nan nan nan nan nan nan nan nan nan 6.7 nan nan 5.0 5.0
nan 0.0 4.8 4.0 5.2 nan nan 4.1 4.1 4.0 5.5 nan 2.6 3.6 3.8 4.2 2.8 3.4 3.1 3.0 3.8 4.6 3.6 5.0 4.1 4.1 5.0 nan nan nan nan nan nan nan 5.0 nan 4.0 nan 5.0 4.1 3.9 4.3 4.7 6.2
3.8 4.3 3.9 nan nan 5.7 5.2 4.7 4.3 4.6 5.5 4.2 2.8 2.6 2.6 nan 3.7 3.3 3.0 3.8 3.7 3.6 3.7 3.2 3.7 3.8 3.9 nan nan nan nan nan nan nan nan nan nan 3.3 4.5 4.5 4.3 4.7 4.9 7.1
5.0 3.6 nan nan 3.2 4.4 6.4 4.2 3.7 5.5 4.8 4.5 2.7 2.5 2.9 2.5 nan 4.0 4.2 3.7 3.9 4.3 3.4 3.6 4.1 4.9 0.0 nan nan nan nan nan nan nan nan nan nan nan 4.0 4.7 5.3 5.9 6.6 6.5
nan 3.2 3.9 4.0 3.9 6.8 4.0 4.3 3.5 3.6 2.6 2.5 2.5 2.5 3.0 2.5 2.6 3.1 4.4 3.5 3.9 3.3 3.5 4.2 4.5 4.5 nan nan nan 5.0 nan nan nan 4.0 5.0 3.3 4.4 4.1 4.5 7.3 7.4 7.0 8.2 8.4
3.7 4.3 6.6 3.5 3.2 3.3 3.8 3.4 3.0 2.7 2.5 2.5 2.5 2.5 2.6 2.5 3.0 3.1 3.1 3.3 3.5 3.7 4.3 4.3 4.6 4.4 4.4 3.7 3.8 3.6 5.1 4.8 5.2 5.3 5.7 6.6 6.7 7.2 6.8 6.5 6.6 7.1 8.4 8.6
4.1 4.4 8.3 4.0 3.3 3.0 2.7 2.5 2.5 2.5 2.5 2.5 2.6 2.8 3.1 2.9 3.0 3.1 3.0 3.5 3.6 3.8 4.4 4.5 4.5 5.0 4.7 5.3 4.9 5.6 6.2 6.3 6.6 6.6 7.1 7.0 7.4 7.7 8.2 8.1 8.2 8.2 7.5 7.8
4.1 4.3 3.9 3.2 3.4 3.6 2.6 2.6 2.5 2.5 2.5 2.5 2.5 3.9 3.4 3.4 3.3 3.5 3.7 3.7 4.5 4.6 4.9 5.0 4.9 5.6 6.0 6.1 6.0 6.2 6.2 6.4 7.4 7.6 7.8 8.1 8.0 7.8 9.2 9.1 8.8 6.9 6.6 6.7
5.1 4.1 3.5 3.6 3.2 3.5 3.0 2.6 2.9 2.8 2.6 2.7 2.8 3.5 3.9 3.2 3.7 4.4 4.6 4.6 5.0 5.3 5.7 5.4 5.1 5.9 6.2 6.5 7.0 7.0 7.7 7.9 8.1 8.2 8.3 8.7 8.7 8.7 8.5 9.3 8.4 7.2 7.2 6.4